User: anonymous   Login
Location: Unspecified
(0.0000°N, 0.0000°E)
Time: 20:52:11
(UTC+01:00)
Language:

ATLAS V CENTAUR R/B - Orbit

View from above orbital plane
View from above orbital plane
View from above satellite
View from above satellite

Ground track
Ground track

The orbit data is extracted from the following two-line orbital elements,

1 27500U 02038B   16336.88680887 +.00020406 +00000-0 +18507-2 0  9994
2 27500 017.8235 166.1482 6809795 115.6687 327.2043 02.92060744120130
Epoch (UTC): 01 December 2016 21:17:00
Eccentricity: 0.6809795
inclination: 17.8235°
perigee height: 217 km
apogee height: 28374 km
right ascension of ascending node: 166.1482°
argument of perigee: 115.6687°
revolutions per day: 2.92060744
mean anomaly at epoch: 327.2043°
orbit number at epoch: 12013

The dashed part of the orbit path shows where the satellite is in the earth's shadow,  

DLR